| time (UTC) | temp F | wind direction | speed knots | gust knots | rain 1hr in | rain 24hr in | rain mn in | humidity % | barometer mb |
| 20260906184519 | 71 | 158 | 0.0 | 1.7 | 0.00 | 0.00 | 0.00 | 72 | 1021.8 |
| 20260906183518 | 71 | 167 | 0.9 | 3.5 | 0.00 | 0.00 | 0.00 | 72 | 1021.8 |
| 20260906182518 | 71 | 180 | 0.9 | 3.5 | 0.00 | 0.00 | 0.00 | 70 | 1021.7 |
| 20260906181539 | 71 | 163 | 2.6 | 3.5 | 0.00 | 0.00 | 0.00 | 72 | 1021.7 |
| 20260906180519 | 71 | 135 | 1.7 | 3.5 | 0.00 | 0.00 | 0.00 | 73 | 1021.5 |
| 20260906175518 | 71 | 144 | 1.7 | 3.5 | 0.00 | 0.00 | 0.00 | 72 | 1021.5 |
| 20260906174530 | 71 | 180 | 0.9 | 3.5 | 0.00 | 0.00 | 0.00 | 71 | 1021.3 |
| 20260906173531 | 71 | 180 | 0.9 | 1.7 | 0.00 | 0.00 | 0.00 | 69 | 1021.2 |
| 20260906172518 | 71 | 180 | 0.9 | 1.7 | 0.00 | 0.00 | 0.00 | 68 | 1021.0 |
| 20260906171519 | 72 | 180 | 0.9 | 1.7 | 0.00 | 0.00 | 0.00 | 67 | 1020.9 |
| 20260906170519 | 72 | 180 | 1.7 | 6.1 | 0.00 | 0.00 | 0.00 | 66 | 1020.8 |
| 20260906165539 | 71 | 160 | 1.7 | 6.1 | 0.00 | 0.00 | 0.00 | 69 | 1020.7 |
| 20260906164539 | 71 | 158 | 0.0 | 1.7 | 0.00 | 0.00 | 0.00 | 70 | 1020.6 |
| 20260906163518 | 72 | 158 | 0.9 | 6.1 | 0.00 | 0.00 | 0.00 | 67 | 1020.5 |
| 20260906162530 | 72 | 180 | 0.9 | 3.5 | 0.00 | 0.00 | 0.00 | 64 | 1020.4 |
| 20260906161530 | 73 | 180 | 1.7 | 6.1 | 0.00 | 0.00 | 0.00 | 61 | 1020.3 |
| 20260906160518 | 73 | 180 | 2.6 | 3.5 | 0.00 | 0.00 | 0.00 | 58 | 1020.2 |
| 20260906155519 | 73 | 200 | 0.9 | 3.5 | 0.00 | 0.00 | 0.00 | 61 | 1020.0 |
| 20260906154518 | 73 | 158 | 2.6 | 7.8 | 0.00 | 0.00 | 0.00 | 64 | 1019.8 |
| 20260906153518 | 74 | 179 | 3.5 | 7.8 | 0.00 | 0.00 | 0.00 | 65 | 1019.7 |
| 20260906152519 | 74 | 113 | 3.5 | 7.8 | 0.00 | 0.00 | 0.00 | 63 | 1019.6 |
| 20260906151518 | 74 | 113 | 2.6 | 6.1 | 0.00 | 0.00 | 0.00 | 63 | 1019.5 |
| 20260906150519 | 76 | 126 | 1.7 | 3.5 | 0.00 | 0.00 | 0.00 | 61 | 1019.4 |
| 20260906145519 | 75 | 122 | 2.6 | 3.5 | 0.00 | 0.00 | 0.00 | 63 | 1019.4 |
| 20260906144531 | 74 | 121 | 3.5 | 7.8 | 0.00 | 0.00 | 0.00 | 64 | 1019.2 |
| 20260906143519 | 75 | 127 | 3.5 | 7.8 | 0.00 | 0.00 | 0.00 | 63 | 1019.2 |
| 20260906142539 | 76 | 123 | 3.5 | 7.8 | 0.00 | 0.00 | 0.00 | 61 | 1019.1 |
| 20260906141531 | 76 | 137 | 4.3 | 7.8 | 0.00 | 0.00 | 0.00 | 60 | 1019.1 |
| 20260906140518 | 76 | 126 | 3.5 | 7.8 | 0.00 | 0.00 | 0.00 | 61 | 1018.9 |
| 20260906135542 | 77 | 142 | 4.3 | 7.8 | 0.00 | 0.00 | 0.00 | 61 | 1019.0 |
| 20260906134519 | 76 | 116 | 4.3 | 7.8 | 0.00 | 0.00 | 0.00 | 62 | 1018.9 |
| 20260906133519 | 77 | 162 | 3.5 | 6.1 | 0.00 | 0.00 | 0.00 | 57 | 1018.8 |
| 20260906132518 | 79 | 147 | 3.5 | 7.8 | 0.00 | 0.00 | 0.00 | 55 | 1018.9 |
| 20260906131519 | 80 | 164 | 2.6 | 6.1 | 0.00 | 0.00 | 0.00 | 56 | 1018.7 |
| 20260906130539 | 81 | 180 | 3.5 | 7.8 | 0.00 | 0.00 | 0.00 | 49 | 1018.6 |
| 20260906125519 | 84 | 238 | 1.7 | 6.1 | 0.00 | 0.00 | 0.00 | 41 | 1018.6 |
| 20260906124519 | 83 | 310 | 3.5 | 7.8 | 0.00 | 0.00 | 0.00 | 40 | 1018.5 |
| 20260906123539 | 83 | 318 | 0.9 | 3.5 | 0.00 | 0.00 | 0.00 | 40 | 1018.5 |
| 20260906122531 | 82 | 338 | 3.5 | 6.1 | 0.00 | 0.00 | 0.00 | 42 | 1018.6 |
| 20260906121531 | 83 | 303 | 1.7 | 9.6 | 0.00 | 0.00 | 0.00 | 41 | 1018.6 |
| 20260906120518 | 82 | 358 | 6.1 | 13.0 | 0.00 | 0.00 | 0.00 | 41 | 1018.6 |
| 20260906115518 | 83 | 324 | 3.5 | 7.8 | 0.00 | 0.00 | 0.00 | 41 | 1018.7 |
| 20260906114539 | 82 | 331 | 6.1 | 9.6 | 0.00 | 0.00 | 0.00 | 41 | 1018.6 |
| 20260906113531 | 83 | 336 | 3.5 | 7.8 | 0.00 | 0.00 | 0.00 | 42 | 1018.7 |
| 20260906112519 | 83 | 310 | 2.6 | 7.8 | 0.00 | 0.00 | 0.00 | 42 | 1018.7 |
| 20260906111530 | 81 | 19 | 5.2 | 13.0 | 0.00 | 0.00 | 0.00 | 43 | 1018.8 |
| 20260906110539 | 82 | 319 | 4.3 | 7.8 | 0.00 | 0.00 | 0.00 | 43 | 1018.8 |
| 20260906105519 | 81 | 6 | 4.3 | 13.0 | 0.00 | 0.00 | 0.00 | 43 | 1018.8 |
| 20260906104538 | 81 | 4 | 7.0 | 14.8 | 0.00 | 0.00 | 0.00 | 43 | 1018.8 |
| 20260906103519 | 81 | 337 | 6.1 | 13.0 | 0.00 | 0.00 | 0.00 | 44 | 1018.9 |
| 20260906102530 | 81 | 10 | 5.2 | 9.6 | 0.00 | 0.00 | 0.00 | 45 | 1018.8 |
| 20260906101531 | 80 | 355 | 3.5 | 7.8 | 0.00 | 0.00 | 0.00 | 44 | 1018.9 |
| 20260906100518 | 80 | 10 | 7.0 | 13.0 | 0.00 | 0.00 | 0.00 | 46 | 1018.8 |
| 20260906095538 | 79 | 19 | 7.8 | 13.0 | 0.00 | 0.00 | 0.00 | 48 | 1018.8 |
| 20260906094518 | 79 | 28 | 7.0 | 13.0 | 0.00 | 0.00 | 0.00 | 49 | 1018.8 |
| 20260906093531 | 80 | 3 | 7.8 | 17.4 | 0.00 | 0.00 | 0.00 | 49 | 1018.9 |
| 20260906092518 | 79 | 19 | 8.7 | 14.8 | 0.00 | 0.00 | 0.00 | 50 | 1018.9 |
| 20260906091518 | 79 | 348 | 7.0 | 13.0 | 0.00 | 0.00 | 0.00 | 49 | 1018.8 |
| 20260906090519 | 79 | 23 | 8.7 | 21.7 | 0.00 | 0.00 | 0.00 | 51 | 1018.9 |
| 20260906085539 | 79 | 345 | 7.8 | 14.8 | 0.00 | 0.00 | 0.00 | 50 | 1018.9 |
| 20260906084518 | 78 | 17 | 8.7 | 13.0 | 0.00 | 0.00 | 0.00 | 53 | 1018.7 |
| 20260906083519 | 78 | 356 | 9.6 | 14.8 | 0.00 | 0.00 | 0.00 | 53 | 1018.8 |
| 20260906082519 | 78 | 1 | 8.7 | 17.4 | 0.00 | 0.00 | 0.00 | 55 | 1018.9 |
| 20260906081519 | 77 | 16 | 8.7 | 14.8 | 0.00 | 0.00 | 0.00 | 58 | 1018.8 |
| 20260906080519 | 76 | 360 | 8.7 | 14.8 | 0.00 | 0.00 | 0.00 | 59 | 1018.7 |
| 20260906075519 | 76 | 359 | 8.7 | 19.1 | 0.00 | 0.00 | 0.00 | 60 | 1018.8 |
| 20260906074519 | 75 | 360 | 8.7 | 21.7 | 0.00 | 0.00 | 0.00 | 61 | 1018.8 |
| 20260906073539 | 75 | 1 | 8.7 | 17.4 | 0.00 | 0.00 | 0.00 | 63 | 1018.8 |
| 20260906072539 | 74 | 15 | 10.4 | 23.5 | 0.00 | 0.00 | 0.00 | 65 | 1018.7 |
| 20260906071519 | 73 | 9 | 12.2 | 29.5 | 0.00 | 0.00 | 0.00 | 66 | 1018.4 |
| 20260906070539 | 72 | 5 | 12.2 | 29.5 | 0.00 | 0.00 | 0.00 | 68 | 1018.2 |
| 20260906065519 | 72 | 9 | 10.4 | 23.5 | 0.00 | 0.00 | 0.00 | 68 | 1018.2 |
| 20260906064519 | 72 | 4 | 9.6 | 14.8 | 0.00 | 0.00 | 0.00 | 71 | 1017.9 |
| 20260906063519 | 71 | 3 | 11.3 | 19.1 | 0.00 | 0.00 | 0.00 | 71 | 1017.8 |
| 20260906062519 | 71 | 5 | 12.2 | 23.5 | 0.00 | 0.00 | 0.00 | 73 | 1017.8 |
| 20260906061518 | 71 | 3 | 11.3 | 17.4 | 0.00 | 0.00 | 0.00 | 75 | 1017.6 |
| 20260906060518 | 70 | 355 | 10.4 | 21.7 | 0.00 | 0.00 | 0.00 | 77 | 1017.6 |
| 20260906055519 | 70 | 349 | 9.6 | 17.4 | 0.00 | 0.00 | 0.00 | 78 | 1017.5 |
| 20260906054519 | 70 | 354 | 9.6 | 14.8 | 0.00 | 0.00 | 0.00 | 78 | 1017.3 |
| 20260906053539 | 70 | 347 | 8.7 | 14.8 | 0.00 | 0.00 | 0.00 | 79 | 1017.3 |
| 20260906052518 | 70 | 347 | 7.8 | 13.0 | 0.00 | 0.00 | 0.00 | 79 | 1017.1 |
| 20260906051539 | 69 | 354 | 7.8 | 13.0 | 0.00 | 0.00 | 0.00 | 80 | 1017.0 |
| 20260906050519 | 68 | 10 | 7.8 | 13.0 | 0.00 | 0.00 | 0.00 | 80 | 1016.9 |
| 20260906045519 | 67 | 4 | 7.8 | 13.0 | 0.00 | 0.00 | 0.00 | 80 | 1016.7 |
| 20260906044531 | 67 | 3 | 7.8 | 13.0 | 0.00 | 0.00 | 0.00 | 80 | 1016.6 |
| 20260906043519 | 67 | 6 | 7.8 | 13.0 | 0.00 | 0.00 | 0.00 | 80 | 1016.5 |
| 20260906042543 | 66 | 1 | 7.8 | 13.0 | 0.00 | 0.00 | 0.00 | 81 | 1016.3 |
| 20260906041519 | 66 | 1 | 8.7 | 13.0 | 0.00 | 0.00 | 0.00 | 82 | 1016.1 |
| 20260906040519 | 65 | 9 | 8.7 | 13.0 | 0.00 | 0.00 | 0.00 | 83 | 1016.1 |
| 20260906035519 | 66 | 11 | 7.8 | 13.0 | 0.00 | 0.00 | 0.00 | 83 | 1015.9 |
| 20260906034519 | 65 | 1 | 8.7 | 17.4 | 0.00 | 0.00 | 0.00 | 82 | 1015.9 |
| 20260906033518 | 65 | 352 | 8.7 | 14.8 | 0.00 | 0.00 | 0.00 | 81 | 1015.8 |
| 20260906032603 | 65 | 4 | 7.8 | 17.4 | 0.00 | 0.00 | 0.00 | 80 | 1015.8 |
| 20260906031519 | 65 | 3 | 7.8 | 14.8 | 0.00 | 0.00 | 0.00 | 79 | 1015.8 |
| 20260906030531 | 66 | 6 | 8.7 | 14.8 | 0.00 | 0.00 | 0.00 | 78 | 1015.6 |
| 20260906025519 | 66 | 7 | 7.8 | 13.0 | 0.00 | 0.00 | 0.00 | 77 | 1015.5 |
| 20260906024519 | 66 | 1 | 7.0 | 13.0 | 0.00 | 0.00 | 0.00 | 76 | 1015.5 |
| 20260906023519 | 66 | 346 | 6.1 | 9.6 | 0.00 | 0.00 | 0.00 | 75 | 1015.5 |
| 20260906022519 | 66 | 344 | 5.2 | 7.8 | 0.00 | 0.00 | 0.00 | 75 | 1015.3 |
| 20260906021539 | 66 | 351 | 4.3 | 7.8 | 0.00 | 0.00 | 0.00 | 74 | 1015.2 |
| 20260906020519 | 67 | 11 | 5.2 | 7.8 | 0.00 | 0.00 | 0.00 | 71 | 1015.2 |
| 20260906015519 | 67 | 333 | 3.5 | 6.1 | 0.00 | 0.00 | 0.00 | 70 | 1015.0 |
| 20260906014519 | 66 | 323 | 1.7 | 3.5 | 0.00 | 0.00 | 0.00 | 75 | 1014.9 |
| 20260906013519 | 65 | 158 | 0.9 | 3.5 | 0.00 | 0.00 | 0.00 | 84 | 1014.9 |
| 20260906012539 | 67 | 0.0 | 0.0 | 0.00 | 0.00 | 0.00 | 86 | 1014.6 | |
| 20260906011611 | 66 | 0.0 | 0.0 | 0.00 | 0.00 | 0.00 | 85 | 1014.6 | |
| 20260906010519 | 65 | 0.0 | 0.0 | 0.00 | 0.00 | 0.00 | 88 | 1014.7 | |
| 20260906005519 | 65 | 0.0 | 0.0 | 0.00 | 0.00 | 0.00 | 89 | 1014.7 | |
| 20260906004519 | 66 | 0.0 | 0.0 | 0.00 | 0.00 | 0.00 | 88 | 1014.7 | |
| 20260906003519 | 67 | 0.0 | 0.0 | 0.00 | 0.00 | 0.00 | 85 | 1014.9 | |
| 20260906002519 | 68 | 0.0 | 0.0 | 0.00 | 0.00 | 0.00 | 82 | 1014.9 | |
| 20260906001531 | 68 | 0.0 | 0.0 | 0.00 | 0.00 | 0.00 | 82 | 1014.9 | |
| 20260906000519 | 68 | 0.0 | 0.0 | 0.00 | 0.00 | 0.00 | 85 | 1015.0 | |
| 20260905235519 | 69 | 0.0 | 0.0 | 0.00 | 0.00 | 0.00 | 87 | 1015.0 | |
| 20260905234519 | 70 | 158 | 0.0 | 1.7 | 0.00 | 0.00 | 0.00 | 88 | 1015.0 |
| 20260905233539 | 70 | 0.0 | 0.0 | 0.00 | 0.00 | 0.00 | 87 | 1015.0 | |
| 20260905232519 | 71 | 158 | 0.9 | 3.5 | 0.00 | 0.00 | 0.00 | 87 | 1015.1 |
| 20260905231539 | 71 | 158 | 0.0 | 1.7 | 0.00 | 0.00 | 0.00 | 87 | 1015.2 |
| 20260905230519 | 72 | 160 | 1.7 | 3.5 | 0.00 | 0.00 | 0.00 | 87 | 1015.2 |
| 20260905225531 | 72 | 166 | 2.6 | 6.1 | 0.00 | 0.00 | 0.00 | 89 | 1015.3 |
| 20260905224518 | 71 | 179 | 1.7 | 3.5 | 0.00 | 0.00 | 0.00 | 89 | 1015.4 |
| 20260905223539 | 71 | 180 | 0.0 | 1.7 | 0.00 | 0.00 | 0.00 | 90 | 1015.6 |
| 20260905222539 | 71 | 0.0 | 0.0 | 0.00 | 0.00 | 0.00 | 88 | 1015.7 | |
| 20260905221531 | 71 | 180 | 0.9 | 1.7 | 0.00 | 0.00 | 0.00 | 87 | 1015.7 |
| 20260905220539 | 72 | 180 | 0.9 | 3.5 | 0.00 | 0.00 | 0.00 | 85 | 1015.8 |
| 20260905215519 | 72 | 180 | 1.7 | 3.5 | 0.00 | 0.00 | 0.00 | 84 | 1015.8 |
| 20260905214519 | 73 | 180 | 2.6 | 3.5 | 0.00 | 0.00 | 0.00 | 82 | 1015.8 |
| 20260905213519 | 73 | 182 | 3.5 | 6.1 | 0.00 | 0.00 | 0.00 | 80 | 1015.9 |
| 20260905212519 | 73 | 184 | 4.3 | 6.1 | 0.00 | 0.00 | 0.00 | 80 | 1015.9 |
| 20260905211519 | 73 | 182 | 3.5 | 6.1 | 0.00 | 0.00 | 0.00 | 81 | 1015.9 |
| 20260905210542 | 72 | 187 | 3.5 | 6.1 | 0.00 | 0.00 | 0.00 | 83 | 1015.9 |
| 20260905205519 | 72 | 194 | 3.5 | 6.1 | 0.00 | 0.00 | 0.00 | 87 | 1015.8 |
| 20260905204543 | 73 | 187 | 2.6 | 6.1 | 0.00 | 0.00 | 0.00 | 88 | 1015.9 |
| 20260905203559 | 73 | 189 | 3.5 | 6.1 | 0.00 | 0.00 | 0.00 | 87 | 1016.0 |
| 20260905202519 | 73 | 188 | 3.5 | 7.8 | 0.00 | 0.00 | 0.00 | 87 | 1015.9 |
| 20260905201519 | 73 | 190 | 3.5 | 6.1 | 0.00 | 0.00 | 0.00 | 87 | 1016.0 |
| 20260905200519 | 73 | 196 | 3.5 | 6.1 | 0.00 | 0.00 | 0.00 | 87 | 1016.0 |
| 20260905195519 | 73 | 186 | 3.5 | 7.8 | 0.00 | 0.00 | 0.00 | 86 | 1016.1 |
| 20260905194519 | 73 | 176 | 4.3 | 6.1 | 0.00 | 0.00 | 0.00 | 85 | 1016.1 |
| 20260905193519 | 73 | 168 | 4.3 | 7.8 | 0.00 | 0.00 | 0.00 | 87 | 1016.1 |
| 20260905192519 | 73 | 150 | 2.6 | 6.1 | 0.00 | 0.00 | 0.00 | 90 | 1016.0 |
| 20260905191519 | 73 | 157 | 1.7 | 3.5 | 0.00 | 0.00 | 0.00 | 90 | 1016.1 |
| 20260905190519 | 73 | 154 | 2.6 | 3.5 | 0.00 | 0.00 | 0.00 | 89 | 1016.1 |
| 20260905185519 | 73 | 154 | 1.7 | 6.1 | 0.00 | 0.00 | 0.00 | 88 | 1016.0 |